This is the latest recevied weather packets stored in our database for station/object K7BC. If no packets are shown the sender has not sent any weather packets the latest 1 day(s).
| Time | Temp. | Humidity | Pressure | Rain* | Wind** | Luminosity | Snow |
|---|---|---|---|---|---|---|---|
| 1778001904 | 28.89° C | 37% | 1010.9 hPa | 0 mm | 0.89 m/s, 256° | - | - |
| 1778001783 | 28.89° C | 36% | 1010.9 hPa | 0 mm | 0 m/s | - | - |
| 1778001665 | 28.89° C | 33% | 1010.9 hPa | 0 mm | 0.45 m/s, 180° | - | - |
| 1778001544 | 28.89° C | 33% | 1011 hPa | 0 mm | 0.89 m/s, 209° | - | - |
| 1778001424 | 28.89° C | 35% | 1011 hPa | 0 mm | 0.45 m/s, 199° | - | - |
| 1778001304 | 28.89° C | 36% | 1011.1 hPa | 0 mm | 0 m/s | - | - |
| 1778001185 | 28.89° C | 35% | 1011 hPa | 0 mm | 0.89 m/s, 342° | - | - |
| 1778001064 | 28.89° C | 35% | 1011 hPa | 0 mm | 0.89 m/s, 239° | - | - |
| 1778000943 | 28.89° C | 36% | 1011 hPa | 0 mm | 0.45 m/s, 236° | - | - |
| 1778000823 | 28.89° C | 36% | 1011.2 hPa | 0 mm | 0.45 m/s, 247° | - | - |
| 1778000703 | 28.89° C | 35% | 1011.2 hPa | 0 mm | 0.45 m/s, 68° | - | - |
| 1778000584 | 28.89° C | 36% | 1011.2 hPa | 0 mm | 0.45 m/s, 279° | - | - |
| 1778000463 | 28.89° C | 36% | 1011.1 hPa | 0 mm | 0.45 m/s, 249° | - | - |
| 1778000343 | 28.89° C | 38% | 1011.3 hPa | 0 mm | 0.45 m/s, 234° | - | - |
| 1778000228 | 28.89° C | 38% | 1011.2 hPa | 0 mm | 0.45 m/s, 159° | - | - |
| 1778000103 | 28.89° C | 37% | 1011.2 hPa | 0 mm | 0.45 m/s, 234° | - | - |
| 1777999985 | 28.33° C | 38% | 1011.3 hPa | 0 mm | 0 m/s | - | - |
| 1777999864 | 28.33° C | 41% | 1011.3 hPa | 0 mm | 0.45 m/s, 332° | - | - |
| 1777999744 | 28.33° C | 41% | 1011.4 hPa | 0 mm | 0 m/s | - | - |
| 1777999624 | 27.78° C | 38% | 1011.4 hPa | 0 mm | 0.45 m/s, 229° | - | - |
| 1777999503 | 27.78° C | 36% | 1011.4 hPa | 0 mm | 0.45 m/s, 172° | - | - |
| 1777999384 | 27.78° C | 37% | 1011.5 hPa | 0 mm | 0.45 m/s, 223° | - | - |
| 1777999264 | 27.78° C | 36% | 1011.4 hPa | 0 mm | 0.45 m/s, 286° | - | - |
| 1777999144 | 27.78° C | 36% | 1011.5 hPa | 0 mm | 0.89 m/s, 209° | - | - |
| 1777999023 | 27.78° C | 36% | 1011.6 hPa | 0 mm | 1.34 m/s, 232° | - | - |
* Rain latest hour (hover to see other rain measurements)
** Current wind speed in m/s (hover to see current wind gust speed)